Location: El Álamo
(40.2307°N, 3.9945°W)
Time: 04:44:27
(UTC+00:00)

Cosmos 1821 Rocket - Pass Details

Date: 19 May 2025
Orbit: 943 x 1004 km, 82.9° (Epoch: 23 June)

Event Time Altitude Azimuth Distance (km) Brightness Sun altitude
Rises 22:15:12 0° 353° (N) 3,631 8.1 -23.9°
Reaches altitude 10° 22:17:43 10° 354° (N) 2,677 7.2 -24.1°
Maximum altitude 22:23:50 82° 82° (E) 957 3.8 -24.7°
Enters shadow 22:25:06 58° 160° (SSE) 1,088 3.9 -24.8°
